Flag for Germany Weather past 2 weeks in Gladbeck, North Rhine-Westphalia, Germany

Now
58 °F

Overcast.


Feels Like: 57 °F
Forecast: 50 / 59 °F
Wind: 7 mph from Southwest

Location: Duesseldorf

Current Time: Sep 4, 2015 at 1:29:57 PM

Latest Report: Sep 4, 2015 at 1:00 PM


Visibility: 16 mi

Pressure: 29.97 "Hg

Humidity: 67%

Dew point: 47 °F

Location of GladbeckLocation

Historic Weather in Gladbeck — Graph

°F

Gladbeck temperature yesterday

Maximum temperature yesterday: 64 °F (at 4:00 PM)
Minimum temperature yesterday: 51 °F (at 7:00 AM)
Average temperature yesterday: 57 °F

Past Weeks' High & Low Weather Summary

 TemperatureHumidityPressure
High89 °F (Aug 30, 4:00 PM)99% (Sep 3, 7:00 AM)30.26 "Hg (Sep 3, 7:00 AM)
Low51 °F (Sep 2, 6:00 AM)33% (Aug 23, 2:00 PM)29.53 "Hg (Aug 24, 6:00 PM)
Average66 °F71%29.96 "Hg
* Reported Aug 20 12:00 Noon — Sep 4 12:00 Noon, Gladbeck, Weather by CustomWeather, © 2015

Note: Actual official high and low records may vary slightly from our data, if they occured in-between our weather recording intervals... More about our weather records

Advertising

Gladbeck weather history for previous 24 hours

 ConditionsComfort  
Time TempWeatherWind HumidityBarometerVisibility
12:00 PM
Fri, Sep 4
59 °FPartly sunny.8 mph66%29.98 "Hg19 mi
11:00 AM58 °FScattered clouds.6 mph72%29.97 "Hg22 mi
10:00 AM55 °FPartly sunny.5 mph79%29.97 "Hg22 mi
9:00 AM54 °FScattered clouds.5 mph84%29.97 "Hg16 mi
8:00 AM52 °FScattered clouds.6 mph90%29.96 "Hg16 mi
7:00 AM51 °FPassing clouds.5 mph91%29.96 "Hg16 mi
5:00 AM53 °FOvercast.3 mph92%29.96 "Hg12 mi
4:00 AM54 °FOvercast.5 mph86%29.96 "Hg19 mi
3:00 AM55 °FOvercast.5 mph88%29.97 "Hg19 mi
2:00 AM55 °FOvercast.3 mph87%29.97 "Hg19 mi
1:00 AM54 °FOvercast.2 mph90%29.98 "Hg19 mi
11:00 PM
Thu, Sep 3
54 °FOvercast.3 mph85%29.97 "Hg31 mi
10:00 PM54 °FPassing clouds.3 mph83%29.98 "Hg31 mi
9:00 PM55 °FPassing clouds.1 mph80%29.96 "Hg31 mi
8:00 PM56 °FPartly sunny.2 mph78%29.96 "Hg31 mi
7:00 PM57 °FSprinkles. Overcast.6 mph72%29.96 "Hg22 mi
6:00 PM61 °FOvercast.6 mph63%29.94 "Hg19 mi
5:00 PM64 °FPartly sunny.6 mph55%29.93 "Hg19 mi
4:00 PM64 °FPassing clouds.5 mph59%29.93 "Hg19 mi
3:00 PM63 °FScattered clouds.6 mph60%29.94 "Hg19 mi
2:00 PM61 °FScattered clouds.3 mph69%29.95 "Hg16 mi
1:00 PM61 °FSprinkles. Overcast.3 mph70%29.95 "Hg11 mi
Weather by CustomWeather, © 2015

See weather overviewHow to use our weather pages